Regional Weather Roundup
Issued by NWS Columbia, SC

Home | Current Version | Previous Version | Text Only | Print | Product List | Glossary On
Versions: 1 2 3 4 5 6 7 8 9 10 11 12 13 14 15 16 17 18 19 20 21 22 23 24 25 26 27 28 29 30 31 32 33 34 35 36 37 38 39 40 41 42 43 44 45 46 47 48 49 50
000
ASUS42 KCAE 300310
RWRCAE
REGIONAL WEATHER ROUNDUP
NATIONAL WEATHER SERVICE COLUMBIA SC
1100 PM EDT SUN MAY 29 2016

NOTE: "FAIR" INDICATES FEW OR NO CLOUDS BELOW 12,000 FEET WITH NO
SIGNIFICANT WEATHER AND/OR OBSTRUCTIONS TO VISIBILITY.

NOT ALL STATIONS ARE QUALITY CONTROLLED BY THE NATIONAL
WEATHER SERVICE. USE DATA WITH CAUTION...ESPECIALLY
DEWPOINT OBSERVATIONS.

SCZ001>056-GAZ040-063>065-077-300400-
...UPSTATE SOUTH CAROLINA...

CITY           SKY/WX    TMP DP  RH WIND       PRES   REMARKS
ANDERSON       CLEAR     68  62  81 NW6       30.05S
LIBERTY        CLEAR     66  64  96 CALM      30.06S
SPARTANBURG    PTCLDY    68  55  64 N3        30.05S
CLEMSON        CLEAR     71  65  81 CALM      30.07S
GREENVILLE     CLEAR     69  59  70 NE7       30.07R
GREENWOOD      MOCLDY    67  58  72 NW5       30.06R
GREER          CLEAR     68  60  75 N5        30.05R
ROCK HILL      CLOUDY    69  61  75 NE6       30.04R
CHESTER        CLOUDY    68  61  77 N8        30.04R
LAURENS        MOCLDY    66  59  77 N5        30.05R


...CENTRAL SOUTH CAROLINA...

CITY           SKY/WX    TMP DP  RH WIND       PRES   REMARKS
COLUMBIA APT   CLOUDY    73  65  75 N6        29.97S
COLUMBIA OWENS MOCLDY    72  65  78 VRB5      29.98R
ORANGEBURG     CLOUDY    72  68  87 NE13G18   29.96S
NEWBERRY       MOCLDY    70  63  78 N6        30.06R
AIKEN          CLOUDY    70  61  73 NW7       30.04R
BARNWELL       CLOUDY    72  72 100 NW3       29.99R
MANNING        DRIZZLE   70  68  94 NE3       29.95R
LANCASTER      CLOUDY    68  68 100 NE7       30.02S
WINNSBORO      PTCLDY    70  64  83 N6        30.00S


...EASTERN AND COASTAL SOUTH CAROLINA...

CITY           SKY/WX    TMP DP  RH WIND       PRES   REMARKS
MYRTLE BEACH   CLOUDY    73  64  73 SE15      29.99S
N MYRTLE BCH   CLOUDY    75  68  78 SE8       29.98R
CONWAY         CLOUDY    70  70 100 E3        29.97S
MARION         CLOUDY    72  68  88 NE6       29.98S
HARTSVILLE     CLOUDY    68  66  94 N8G16     29.99S
FLORENCE       LGT RAIN  74  69  85 NE7       29.98R
DARLINGTON     CLOUDY    71  69  93 N12       29.99S
CHARLESTON APT CLOUDY    72  67  84 NE6       29.93R
MOUNT PLEASANT CLOUDY    72  70  94 CALM      29.93R
WALTERBORO     CLOUDY    72  72 100 NW7       29.95R
BEAUFORT       CLOUDY    70  68  93 W10       29.95R


...EASTERN GEORGIA...

CITY           SKY/WX    TMP DP  RH WIND       PRES   REMARKS
AUGUSTA BUSH F CLOUDY    73  62  68 N12       30.00R
AUGUSTA DANIEL CLOUDY    73  60  63 NW7       30.02R
THOMSON        CLEAR     66  66  99 NW3       30.08S
WASHINGTON     FAIR      70  66  88 NW3       30.05R
CLAXTON        MOCLDY    71  65  79 W5        30.01S
SYLVANIA       CLOUDY    71  67  86 NW8       30.00S
STATESBORO     CLOUDY    70  67  90 NW7       30.00S
SAVANNAH       CLOUDY    71  63  75 W9        29.99R


...SOUTHERN NORTH CAROLINA...

CITY           SKY/WX    TMP DP  RH WIND       PRES   REMARKS
CHARLOTTE      PTCLDY    69  60  73 N7        30.05R
MONROE         CLOUDY    68  61  78 NE10      30.03S
WADESBORO      CLOUDY    68  61  77 N6        30.03S
ROCKINGHAM     CLOUDY    67  66  96 NE9       30.02S
RUTHERFORDTON  CLOUDY    65  65  99 CALM      30.09R
ASHEVILLE      CLOUDY    66  59  78 CALM      30.12S

$$



USA.gov is the U.S. government's official web portal to all federal, state and local government web resources and services.